Regional Weather Roundup
Issued by NWS Little Rock, AR

Home | Current Version | Previous Version | Text Only | Print | Product List | Glossary On
Versions: 1 2 3 4 5 6 7 8 9 10 11 12 13 14 15 16 17 18 19 20 21 22 23 24 25 26 27 28 29 30 31 32 33 34 35 36 37 38 39 40 41 42 43 44 45 46 47 48 49 50
000
ASUS44 KLZK 260005
RWRLZK

WEATHER ROUNDUP FOR ARKANSAS
NATIONAL WEATHER SERVICE LITTLE ROCK AR
600 PM CST TUE NOV 25 2014

NOTE: "FAIR" INDICATES FEW OR NO CLOUDS BELOW 12,000 FEET WITH NO
SIGNIFICANT WEATHER AND/OR OBSTRUCTIONS TO VISIBILITY.

ARZ001-003-010-029-260100-
NORTHWEST ARKANSAS

CITY           SKY/WX    TMP DP  RH WIND       PRES   REMARKS
FAYETTEVILLE   CLEAR     34  26  72 CALM      30.15S
6HR MIN TEMP:  34; 6HR MAX TEMP:  47;

FORT SMITH     CLEAR     44  24  45 W5        30.17R
6HR MIN TEMP:  42; 6HR MAX TEMP:  53;

HARRISON       CLEAR     39  19  44 CALM      30.15R
6HR MIN TEMP:  39; 6HR MAX TEMP:  48;

BENTONVILLE    FAIR      39  19  45 CALM      30.15S
6HR MIN TEMP:  39; 6HR MAX TEMP:  46;

ROGERS         CLEAR     41  21  44 W3        30.14S
6HR MIN TEMP:  41; 6HR MAX TEMP:  47;

SILOAM SPGS    CLEAR     39  18  41 W6        30.16S
6HR MIN TEMP:  39; 6HR MAX TEMP:  48;

HIGHFILL       CLEAR     40  21  46 W5        30.14S
6HR MIN TEMP:  40; 6HR MAX TEMP:  48;

SPRINGDALE     CLEAR     39  21  48 W9        30.16S
$$

ARZ004-005-016-260100-
NORTH CENTRAL ARKANSAS

CITY           SKY/WX    TMP DP  RH WIND       PRES   REMARKS
BATESVILLE     CLEAR     43  18  36 CALM      30.18R
6HR MIN TEMP:  43; 6HR MAX TEMP:  52;

FLIPPIN        CLEAR     37  19  48 CALM      30.16S
6HR MIN TEMP:  37; 6HR MAX TEMP:  48;

MTN HOME       CLEAR     38  18  44 CALM      30.15R
6HR MIN TEMP:  38; 6HR MAX TEMP:  47;

$$

ARZ040-041-260100-
WEST CENTRAL ARKANSAS

CITY           SKY/WX    TMP DP  RH WIND       PRES   REMARKS
MENA           CLEAR     43  30  61 CALM      30.16R
MOUNT IDA      CLEAR     43  29  57 CALM      30.14R
6HR MIN TEMP:  43; 6HR MAX TEMP:  57;

$$

ARZ009-017-025-026-028-260100-
NORTHEAST ARKANSAS

CITY           SKY/WX    TMP DP  RH WIND       PRES   REMARKS
CORNING        FAIR      39  28  65 S6        30.19R
JONESBORO      CLEAR     37  31  78 CALM      30.19R
6HR MIN TEMP:  37; 6HR MAX TEMP:  48;

NEWPORT        CLEAR     44  28  53 E3        30.20R
6HR MIN TEMP:  44; 6HR MAX TEMP:  51;

WALNUT RIDGE   CLEAR     39  27  60 SE6       30.18R
6HR MIN TEMP:  39; 6HR MAX TEMP:  48;

BLYTHEVILLE    MOCLDY    47  32  56 CALM      30.19R
6HR MIN TEMP:  47; 6HR MAX TEMP:  59;

$$

ARZ022-023-033-042-044-260100-
CENTRAL ARKANSAS

CITY           SKY/WX    TMP DP  RH WIND       PRES   REMARKS
LITTLE ROCK    CLEAR     48  19  31 CALM      30.19R
6HR MIN TEMP:  48; 6HR MAX TEMP:  56;

N LITTLE ROCK  CLEAR     42  28  57 NW3       30.19R
6HR MIN TEMP:  42; 6HR MAX TEMP:  53;

JACKSONVILLE   CLEAR     39  29  68 CALM      30.18R
6HR MIN TEMP:  39; 6HR MAX TEMP:  55;

SEARCY         CLEAR     37  29  72 CALM      30.20R
6HR MIN TEMP:  37; 6HR MAX TEMP:  53;

HOT SPRINGS    CLEAR     42  27  55 NE3       30.17R
6HR MIN TEMP:  41; 6HR MAX TEMP:  57;

RUSSELLVILLE   CLEAR     38  29  70 CALM      30.16S
6HR MIN TEMP:  38; 6HR MAX TEMP:  53;

CLINTON        FAIR      37  30  75 CALM      30.19R
$$

ARZ036-260100-
EAST ARKANSAS

CITY           SKY/WX    TMP DP  RH WIND       PRES   REMARKS
WEST MEMPHIS   MOCLDY    38  31  76 CALM      30.19R
6HR MIN TEMP:  37; 6HR MAX TEMP:  47;

$$

ARZ050-053-066-070-073-260100-
SOUTHWEST ARKANSAS

CITY           SKY/WX    TMP DP  RH WIND       PRES   REMARKS
ARKADELPHIA    FAIR      43  39  85 CALM      30.19R
6HR MIN TEMP:  43; 6HR MAX TEMP:  57;

CAMDEN         CLEAR     41  32  70 CALM      30.20R
TEXARKANA      CLEAR     47  32  56 SE5       30.17R
6HR MIN TEMP:  47; 6HR MAX TEMP:  59;

EL DORADO      CLEAR     42  35  76 CALM      30.20R
6HR MIN TEMP:  42; 6HR MAX TEMP:  57;

DE QUEEN       CLEAR     44  32  62 CALM      30.15R
6HR MIN TEMP:  44; 6HR MAX TEMP:  59;

$$

ARZ056-057-069-260100-
SOUTHEAST ARKANSAS

CITY           SKY/WX    TMP DP  RH WIND       PRES   REMARKS
PINE BLUFF     CLEAR     42  31  64 SE6       30.20R
6HR MIN TEMP:  42; 6HR MAX TEMP:  54;

STUTTGART        N/A     45  30  57 SE6       30.20R VSB 3/4
6HR MIN TEMP:  45; 6HR MAX TEMP:  54;

MONTICELLO     CLEAR     42  32  67 CALM      30.20R
6HR MIN TEMP:  42; 6HR MAX TEMP:  55; 6HR PCP: TRACE;


$$





USA.gov is the U.S. government's official web portal to all federal, state and local government web resources and services.